Location: Fontevrault
(47.1823°N, 0.0493°E)
Time: 17:29:22
(UTC+00:00)

Cosmos 1725 Rocket - Pass Details

Date: 25 October 2021
Orbit: 961 x 991 km, 82.9° (Epoch: 27 November)

Event Time Altitude Azimuth Distance (km) Brightness Sun altitude
Exits shadow 19:54:51 22° 15° (NNE) 1,997 5.6 -31.1°
Drops below altitude 10° 19:56:49 10° 12° (NNE) 2,715 6.4 -31.4°
Sets 19:59:20 0° 11° (N) 3,663 7.1 -31.8°
